Flag for Ukraine Weather past 2 weeks in L'viv, Ukraine

Now
52 °F

Sprinkles. Partly sunny.


Feels Like: 47 °F
Forecast: 47 / 66 °F
Wind: 13 mph from Northwest

Location: L'Viv Airport

Current Time: May 7, 2015 at 9:45:53 AM

Latest Report: May 7, 2015 at 9:00 AM


Visibility: 4 mi

Pressure: 29.92 "Hg

Humidity: 94%

Dew point: 50 °F

Location of L'vivLocation

Historic Weather in L'viv — Graph

°F

L'viv temperature yesterday

Maximum temperature yesterday: 77 °F (at 2:00 PM)
Minimum temperature yesterday: 59 °F (at 3:00 AM)
Average temperature yesterday: 66 °F

Past Weeks' High & Low Weather Summary

 TemperatureHumidityPressure
High77 °F (May 6, 2:00 PM)100% (Apr 29, 10:30 PM)30.21 "Hg (Apr 29, 10:30 PM)
Low30 °F (Apr 30, 6:00 AM)28% (Apr 24, 5:00 PM)29.65 "Hg (Apr 28, 5:30 PM)
Average55 °F67%29.92 "Hg
* Reported Apr 22 8:00 AM — May 7 8:30 AM, L'viv, Weather by CustomWeather, © 2015

Note: Actual official high and low records may vary slightly from our data, if they occured in-between our weather recording intervals... More about our weather records

Advertising

L'viv weather history for previous 24 hours

 ConditionsComfort  
Time TempWeatherWind HumidityBarometerVisibility
8:30 AM
Thu, May 7
52 °FSprinkles. Partly sunny.15 mph94%29.92 "Hg4 mi
8:00 AM54 °FSprinkles. Partly sunny.15 mph94%29.92 "Hg6 mi
7:30 AM54 °FSprinkles. Fog.15 mph94%29.89 "Hg2 mi
7:00 AM55 °FSprinkles. Fog.10 mph94%29.89 "Hg2 mi
6:30 AM57 °FSprinkles. Passing clouds.3 mph94%29.86 "Hg4 mi
6:00 AM57 °FPassing clouds.3 mph94%29.86 "HgN/A
5:30 AM57 °FSprinkles. Passing clouds.3 mph94%29.86 "HgN/A
5:00 AM57 °FSprinkles. Passing clouds.6 mph94%29.86 "HgN/A
4:30 AM57 °FSprinkles. Passing clouds.3 mph94%29.86 "HgN/A
4:00 AM57 °FPassing clouds.6 mph94%29.86 "HgN/A
3:30 AM57 °FSprinkles. Passing clouds.6 mph94%29.83 "HgN/A
3:00 AM57 °FSprinkles. Passing clouds.6 mph94%29.83 "HgN/A
2:30 AM57 °FSprinkles. Passing clouds.6 mph94%29.83 "Hg5 mi
2:00 AM57 °FThundershowers. Passing clouds.3 mph94%29.86 "Hg3 mi
1:30 AM57 °FThundershowers. Passing clouds.6 mph94%29.89 "HgN/A
1:00 AM57 °FThundershowers. Passing clouds.6 mph94%29.86 "HgN/A
12:00 AM59 °FPassing clouds.8 mph94%29.83 "HgN/A
11:30 PM
Wed, May 6
59 °FPassing clouds.8 mph94%29.83 "HgN/A
11:00 PM59 °FPassing clouds.3 mph94%29.83 "HgN/A
10:30 PM59 °FThundershowers. Mostly cloudy.6 mph94%29.80 "HgN/A
10:00 PM59 °FThundershowers. Passing clouds.6 mph94%29.80 "HgN/A
9:30 PM59 °FThunderstorms. Partly sunny.13 mph94%29.83 "HgN/A
9:04 PM63 °FThunderstorms. Partly sunny.15 mph83%29.86 "HgN/A
8:30 PM64 °FBroken clouds.8 mph83%29.83 "HgN/A
8:00 PM66 °FBroken clouds.10 mph83%29.83 "HgN/A
7:30 PM68 °FBroken clouds.13 mph83%29.80 "HgN/A
7:00 PM70 °FBroken clouds.No wind78%29.80 "HgN/A
6:30 PM72 °FBroken clouds.1 mph69%29.80 "HgN/A
6:00 PM72 °FBroken clouds.3 mph69%29.80 "HgN/A
5:30 PM68 °FThundershowers. Broken clouds.1 mph78%29.80 "HgN/A
5:04 PM66 °FThundershowers. Broken clouds.1 mph83%29.80 "HgN/A
4:30 PM66 °FThundershowers. Broken clouds.8 mph83%29.80 "HgN/A
4:00 PM68 °FThundershowers. Broken clouds.6 mph88%29.83 "Hg5 mi
3:30 PM72 °FThundershowers. Broken clouds.6 mph73%29.80 "HgN/A
3:00 PM73 °FThundershowers. Broken clouds.6 mph65%29.83 "HgN/A
2:30 PM75 °FThundershowers. Broken clouds.3 mph57%29.83 "HgN/A
2:00 PM77 °FPartly sunny.6 mph54%29.83 "HgN/A
1:30 PM75 °FPartly sunny.8 mph54%29.86 "HgN/A
1:00 PM75 °FPartly sunny.8 mph57%29.86 "HgN/A
12:30 PM75 °FPartly sunny.8 mph57%29.86 "HgN/A
12:00 PM73 °FPartly sunny.8 mph61%29.86 "HgN/A
11:30 AM72 °FPartly sunny.8 mph61%29.86 "HgN/A
11:00 AM70 °FPartly sunny.8 mph69%29.86 "HgN/A
10:30 AM68 °FPartly sunny.6 mph73%29.89 "HgN/A
10:00 AM66 °FBroken clouds.8 mph73%29.89 "HgN/A
9:30 AM66 °FBroken clouds.8 mph73%29.89 "HgN/A
9:00 AM64 °FBroken clouds.8 mph73%29.89 "HgN/A
Weather by CustomWeather, © 2015

See weather overviewHow to use our weather pages